Regional Weather Roundup
Issued by NWS

Home | Current Version | Previous Version | Text Only | Print | Product List | Glossary On
Versions: 1 2 3 4 5 6 7 8 9 10 11 12 13 14 15 16 17 18 19 20 21 22 23 24 25 26 27 28 29 30 31 32 33 34 35 36 37 38 39 40 41 42 43 44 45 46 47 48 49 50
000
ASUS43 KDTX 290910
RWRMI
MICHIGAN HOURLY REGIONAL WEATHER ROUNDUP
NATIONAL WEATHER SERVICE DETROIT/PONTIAC MI
500 AM EDT SUN MAY 29 2016

NOTE: "FAIR" INDICATES FEW OR NO CLOUDS BELOW 12,000 FEET WITH NO
SIGNIFICANT WEATHER AND/OR OBSTRUCTION TO VISIBILITY.

MIZ047>049-052>055-059>063-066>070-074>076-081>083-291000-
SOUTHEAST LOWER MICHIGAN

CITY           SKY/WX    TMP DP  RH WIND       PRES   REMARKS
ADRIAN         CLOUDY    69  64  84 SW6       30.05S
ALMA           CLOUDY    69  64  85 S10G16    29.97F
ANN ARBOR      CLOUDY    68  63  84 SW6       30.04S
BAD AXE        PTCLDY    66  63  87 S7        30.00S
CARO           CLOUDY    68  62  81 SE3       29.99F
DETROIT CITY   PTCLDY    70  62  76 SW8       30.04S
DETROIT        CLOUDY    69  63  81 S5        30.04F
FLINT          CLOUDY    73  63  70 S6        30.00F
GROSSE ILE     CLOUDY    68  64  88 S6        30.03F
HILLSDALE      CLOUDY    67  64  90 S6        30.04S
HOWELL         CLOUDY    71  65  81 S6        30.02S

CITY           SKY/WX    TMP DP  RH WIND       PRES   REMARKS
JACKSON        CLOUDY    69  65  86 S6        30.02S
LAMBERTVILLE   CLOUDY    71  64  76 S6        30.05S
LANSING        CLOUDY    69  64  84 S9        30.00S
LAPEER         FAIR      68  61  76 SE6       30.02F
MASON          CLOUDY    69  64  86 SE7       30.01S
MONROE         CLOUDY    69  64  85 S8        30.04S
MT. CLEMENS    PTCLDY    63  63 100 S3        30.02F
PONTIAC        MOCLDY    69  62  78 S6        30.03S
PORT HOPE        N/A     72  65  78 VRB3      29.98S
PORT HURON     CLEAR     66  63  88 S3        30.04S
TRI CITIES     CLOUDY    73  65  75 S9        29.98S
MIDLAND        FAIR      69  66  88 S3        29.96F
TROY           CLOUDY    70  64  83 S6        30.05F
SAGINAW HB     CLOUDY    70  63  78 S6        29.98S
$$
MIZ043>046-050>051-056>058-064>065-071>073-077>080-291000-
SOUTHWEST LOWER MICHIGAN

CITY           SKY/WX    TMP DP  RH WIND       PRES   REMARKS
BATTLE CREEK   PTCLDY    68  64  87 S9        29.99F
BENTON HARBOR  MOCLDY    65  61  87 CALM      29.96R
BIG RAPIDS     PTCLDY    64  63  97 S5        29.94S
COLDWATER      CLEAR     69  64  84 CALM      30.02S
FREMONT        FAIR      63  63  99 S3        29.94R
HOLLAND        MOCLDY    65  58  78 S6        29.96S
GRAND RAPIDS   PTCLDY    69  61  75 S8        29.96F
IONIA          FAIR      70  62  77 S7        29.96F
KALAMAZOO      CLOUDY    70  64  81 S6        29.97F
LUDINGTON      MOCLDY    62  58  88 S6        29.92S
MARSHALL       PTCLDY    69  65  84 S5        30.01S
MOUNT PLEASANT CLOUDY    69  64  84 S6        29.96S
MUSKEGON       PTCLDY    63  57  81 S6        29.95R
SOUTH HAVEN    MOCLDY    65  63  91 CALM      29.96S
$$
MIZ016>042-291000-
NORTHERN LOWER MICHIGAN

CITY           SKY/WX    TMP DP  RH WIND       PRES   REMARKS
ALPENA         CLOUDY    70  63  78 SW3       29.94S
BEAVER ISLAND  CLEAR     63  56  78 S5        29.88S
BELLAIRE       PTCLDY    62  60  93 CALM      29.89F
CADILLAC       CLOUDY    64  59  83 S3        29.93S
CHARLEVOIX     CLEAR     67  60  80 S6        29.91F
FRANKFORT      PTCLDY    63  60  91 CALM      29.89S
GAYLORD        CLOUDY    67  62  84 S8        29.92F
GRAYLING       MOCLDY    65  63  93 SE3       29.94F
HARBOR SPRINGS PTCLDY    67  61  80 S5        29.89F
HOUGHTON LAKE  CLOUDY    67  62  84 S7        29.95F
MANISTEE       PTCLDY    61  57  88 CALM      29.91S
OSCODA         CLOUDY    69  64  84 S6        29.96S
PELLSTON       CLOUDY    67  61  81 S6        29.89F
ROGERS CITY    PTCLDY    68  63  82 S6        29.92F
TRAVERSE CITY  PTCLDY    68  61  78 VRB3      29.87F
$$
MIZ007>008-015-291000-
EASTERN UPPER MICHIGAN

CITY           SKY/WX    TMP DP  RH WIND       PRES   REMARKS
KINROSS          N/A     63  61  94 CALM      29.89S
MACKINAC ISLAN CLOUDY    66  61  84 S7        29.88S
NEWBERRY       CLEAR     58  56  92 S9        29.87S
S. S. MARIE    CLOUDY    61  58  90 CALM      29.89S
MUNISING         N/A     62  57  83 S7        29.81F
$$
MIZ004>006-011>014-085-291000-
CENTRAL UPPER MICHIGAN

CITY           SKY/WX    TMP DP  RH WIND       PRES   REMARKS
MANISTIQUE     PTCLDY    54  53  97 S6        29.86F
ESCANABA       CLOUDY    61  59  94 S9        29.82F
MENOMINEE      CLEAR     63  61  94 S6        29.84S
SAWYER-GWINN   CLEAR     60  58  94 S8        29.82F
$$
MIZ001>003-009>011-084-291000-
WESTERN UPPER MICHIGAN

CITY           SKY/WX    TMP DP  RH WIND       PRES   REMARKS
IRON MOUNTAIN  CLOUDY    63  60  90 S3        29.80F
HOUGHTON       FOG       57  56  96 CALM      29.76F VSB 1/4
COPPER HARBOR    N/A     46  45  96 CALM      29.76F
IRONWOOD       CLOUDY    55  54  94 CALM      29.76F
$$

ABBREVIATIONS USED IN REMARKS
   TC - TEMPERATURE IN CELSIUS
  WCI - WIND CHILL INDEX
   HX - HEAT INDEX
  VSB - VISIBILITY





USA.gov is the U.S. government's official web portal to all federal, state and local government web resources and services.